Regional Weather Roundup
Issued by NWS

Home | Current Version | Previous Version | Graphics & Text | Print | Product List | Glossary On
Versions: 1 2 3 4 5 6 7 8 9 10 11 12 13 14 15 16 17 18 19 20 21 22 23 24 25 26 27 28 29 30 31 32 33 34 35 36 37 38 39 40 41 42 43 44 45 46 47 48 49 50
000
ASUS43 KMPX 220310
RWRMN
WEATHER ROUNDUP FOR MINNESOTA
NATIONAL WEATHER SERVICE TWIN CITIES/CHANHASSEN MN
1000 PM CDT TUE OCT 21 2014


NOTE: "FAIR" INDICATES FEW OR NO CLOUDS BELOW 12,000 FEET WITH NO
SIGNIFICANT WEATHER AND/OR OBSTRUCTIONS TO VISIBILITY. N/A MEANS
CURRENT SKY AND/OR WEATHER CONDITIONS ARE NOT AVAILABLE.

MNZ060>063-068>070-220400-
   Twin Cities Metro

CITY           SKY/WX    TMP DP  RH WIND       PRES   REMARKS
TWIN CITIES    CLEAR     49  38  65 SE12      30.17R
ST PAUL        CLEAR     47  39  74 SE7       30.19R
CRYSTAL        CLEAR     51  38  60 SE12      30.16R
BLAINE         CLEAR     48  41  76 E8        30.17S
LAKEVILLE      CLEAR     43  37  81 SE5       30.18R
EDEN PRAIRIE   CLEAR     48  39  71 SE10      30.15R
SOUTH ST PAUL  CLEAR     48  38  67 SE5       30.18S
LAKE ELMO      FAIR      45  37  76 SE6       30.19S
$$
MNZ001>005-007-008-013>017-022>024-027-028-220400-
   Northwest Minnesota

CITY           SKY/WX    TMP DP  RH WIND       PRES   REMARKS
BEMIDJI        CLEAR     48  38  68 SE16      30.04S
HALLOCK        PTCLDY    54  39  58 S18       29.85S
ROSEAU         CLEAR     52  39  62 SE17      29.93S
WARROAD        CLEAR     48  39  71 SE14G21   29.96S
THIEF RVR FALL CLEAR     54  37  54 SE17G29   29.93R
CROOKSTON      CLEAR     55  39  54 S24G32    29.90S
FOSSTON        CLEAR     52  37  58 SE17G26   29.97S
DETROIT LAKES  CLEAR     50  41  71 SE14      30.01S
MOORHEAD       CLEAR     57  43  58 SE21G31   29.93S
PARK RAPIDS    CLEAR     48  38  68 SE17      30.05S
MAHNOMEN       FAIR      52  39  62 SE18G26   29.96S
$$
MNZ006-009>011-018-025>026-220400-
   North Central Minnesota

CITY           SKY/WX    TMP DP  RH WIND       PRES   REMARKS
BAUDETTE       CLEAR     45  36  70 SE12G17   30.02R
FLAG ISLAND    CLEAR     48  39  71 SE26      29.96S
INTL FALLS     CLEAR     40  34  79 SE12      30.09S
WASKISH        CLEAR     46  37  71 SE12G21   30.03S
BIG FORK       CLEAR     43  36  75 SE9       30.12R
LONGVILLE      CLEAR     46  37  71 SE9       30.10S
GRAND RAPIDS   CLEAR     39  34  81 SE12G18   30.13S
CRANE LAKE     CLEAR     34  32  93 SE5       30.17F WCI  30
ORR            CLEAR     36  32  87 SE10      30.12S
COOK           CLEAR     36  34  93 SE7       30.16S
WALKER         FAIR      49  37  65 SE8G21    30.07S
$$
MNZ012-019>021-037-220400-
   Northeast Minnesota

CITY           SKY/WX    TMP DP  RH WIND       PRES   REMARKS
DULUTH         PTCLDY    40  36  86 E8        30.20R
ELY            CLEAR     36  34  93 SE6       30.19R
HIBBING        CLEAR     35  32  88 SE10      30.17S WCI  27
EVELETH        MOCLDY    36  36 100 SE5       30.19S
DULUTH HARBOR  CLEAR     43  39  87 E10       30.23S
TWO HARBORS    PTCLDY    43  30  61 E7        30.21S
SILVER BAY     PTCLDY    43  39  87 E7        30.22S
GRAND MARAIS     N/A     42  37  82 E12       30.27S
G MARAIS ARPRT CLOUDY    34  30  86 E6        30.24S WCI  29
$$
MNZ029>031-032-039>041-046>048-054>057-064-220400-
   West Central Minnesota

CITY           SKY/WX    TMP DP  RH WIND       PRES   REMARKS
FERGUS FALLS   CLEAR     54  37  54 SE21      30.00S
WHEATON        CLEAR     54  39  58 SE18      29.98S
MORRIS         CLEAR     54  41  62 SE18G25   30.00S
ALEXANDRIA     CLEAR     49  41  74 SE18      30.06S
ELBOW LAKE     FAIR      53  40  63 SE18G25   30.00S
WADENA         CLEAR     46  39  76 SE13      30.05S
GLENWOOD       CLEAR     48  41  76 SE13      30.07R
APPLETON       CLEAR     55  39  54 SE15      30.01S
BENSON         CLEAR     54  41  62 S15G24    30.04S
ORTONVILLE     CLEAR     55  39  54 SE14      29.99R
MADISON        CLEAR     59  43  55 SE13      30.01S
WILLMAR        FAIR      54  39  58 SE17      30.09R
$$
MNZ033>034-036-042>043-049>051-058-059-220400-
   Central Minnesota

CITY           SKY/WX    TMP DP  RH WIND       PRES   REMARKS
ST CLOUD       CLEAR     50  38  63 SE9       30.13R
SAUK CENTRE    FAIR      49  40  73 SE13      30.09R
PAYNESVILLE    CLEAR     48  39  71 E13       30.10S
AITKIN         CLEAR     48  37  66 SE6       30.13R
PINE RIVER     CLEAR     46  39  76 SE12      30.13S
BRAINERD       CLEAR     47  38  71 SE10      30.13R
STAPLES        CLEAR     48  37  66 SE9       30.09R
LONG PRAIRIE   FAIR      46  37  71 SE10      30.09S
LITTLE FALLS   CLEAR     46  37  71 SE10      30.11S
LITCHFIELD     CLEAR     52  41  66 SE10      30.12R
BUFFALO        CLEAR     49  39  67 E9        30.16R
MAPLE LAKE     CLEAR     49  42  75 SE7       30.15R
$$
MNZ037-044-045-052-053-220400-
   East Central Minnesota

CITY           SKY/WX    TMP DP  RH WIND       PRES   REMARKS
PRINCETON      CLEAR     45  39  81 E5        30.16S
MORA           CLEAR     43  36  75 SE5       30.18S
CAMBRIDGE      CLEAR     48  36  61 SE6       30.15S
RUSH CITY      PTCLDY    44  36  74 SE7       30.18S
MOOSE LAKE     CLEAR     36  34  93 CALM      30.17R
HINCKLEY       FAIR      45  36  70 SE5       30.18S
CLOQUET        CLEAR     39  36  87 E8        30.19S
MCGREGOR       CLEAR     37  36  93 E7        30.16S
$$
MNZ071>073-080-081-089-090-097-098-220400-
   Southwest Minnesota

CITY           SKY/WX    TMP DP  RH WIND       PRES   REMARKS
MONTEVIDEO     CLEAR     55  41  58 S13G18    30.05R
GRANITE FALLS  CLEAR     55  40  58 SE13G18   30.06S
CANBY          CLEAR     53  42  68 SE9       30.02S
MARSHALL       CLEAR     55  39  54 SE13      30.04R
REDWOOD FALLS  CLEAR     51  40  65 SE13      30.08R
OLIVIA         CLEAR     52  41  66 SE9       30.08R
PIPESTONE      CLEAR     57  41  54 S15G21    30.03S
WINDOM         CLEAR     54  39  58 SE15      30.09S
WORTHINGTON    CLEAR     52  41  66 SE10      30.09R
JACKSON        CLEAR     52  39  62 SE12      30.11R
TRACY          CLEAR     56  42  60 S15G21    30.05S
SLAYTON        CLEAR     52  40  65 SE10      30.07R
$$
MNZ065>067-074>077-082>085-091>093-220400-
   South Central Minnesota

CITY           SKY/WX    TMP DP  RH WIND       PRES   REMARKS
MANKATO        CLEAR     48  36  61 SE14      30.14S
NEW ULM        CLEAR     52  41  66 SE16      30.11R
ST JAMES       CLEAR     52  39  62 SE12      30.12S
FAIRMONT       CLEAR     48  37  66 SE14      30.12S
GLENCOE        CLEAR     48  42  78 E9        30.13S
FARIBAULT      CLEAR     48  39  71 SE9       30.17S
OWATONNA       CLEAR     46  37  71 SE9       30.17S
WASECA         CLEAR     43  34  70 SE8       30.18R
ALBERT LEA     CLEAR     48  39  71 SE12      30.17S
$$
MNZ078>079-086>088-094>096-220400-
   Southeast Minnesota

CITY           SKY/WX    TMP DP  RH WIND       PRES   REMARKS
ROCHESTER      CLEAR     44  37  76 SE9       30.21R
RED WING       CLEAR     46  39  76 E5        30.20R
STANTON        CLEAR     49  38  67 SE8       30.17R
DODGE CENTER   CLEAR     43  37  81 SE8       30.19R
WINONA         CLEAR     41  37  87 SE5       30.24R
AUSTIN         CLEAR     43  37  81 SE6       30.19R
PRESTON        CLEAR     44  36  72 SE9       30.22R
$$
ABBREVIATIONS USED IN REMARKS
   TC - TEMPERATURES IN CELSIUS
  WCI - WIND CHILL INDEX
   HX - HEAT INDEX
  VSB - VISIBILITY
$$



USA.gov is the U.S. government's official web portal to all federal, state and local government web resources and services.